Regional Weather Roundup
Issued by NWS Cleveland, OH

Home | Current Version | Previous Version | Text Only | Print | Product List | Glossary Off
Versions: 1 2 3 4 5 6 7 8 9 10 11 12 13 14 15 16 17 18 19 20 21 22 23 24 25 26 27 28 29 30 31 32 33 34 35 36 37 38 39 40 41 42 43 44 45 46 47 48 49 50

000
ASUS41 KCLE 040500
RWRCLE
OHIO REGIONAL WEATHER ROUNDUP
NATIONAL WEATHER SERVICE WILMINGTON, OH
1200 AM EST WED MAR 04 2015

NOTE: "FAIR" INDICATES FEW OR NO CLOUDS BELOW 12,000 FEET WITH NO
SIGNIFICANT WEATHER AND/OR OBSTRUCTIONS TO VISIBILITY.

OHZ001>008-015>018-024>027-034-035-043-044-040600-
   NORTHWEST OHIO

CITY           SKY/WX    TMP DP  RH WIND       PRES   REMARKS
DEFIANCE       CLOUDY    36  30  79 VRB7      29.82R
FINDLAY        CLOUDY    35  32  88 W17       29.82R WCI  25
TOLEDO EXPRESS CLOUDY    34  29  82 W10       29.79R WCI  26
TOLEDO EXEC    CLOUDY    35  29  78 W14       29.80R WCI  26
LIMA           CLOUDY    36  32  85 W17       29.84R
$$

OHZ009>014-019>023-028>033-038-089-040600-
   NORTHEAST OHIO

CITY           SKY/WX    TMP DP  RH WIND       PRES   REMARKS
CLE-HOPKINS    CLOUDY    36  32  85 SW15      29.81R
CLE-LAKEFRONT  CLOUDY    36  33  89 SW17      29.77R
CUY CO. ARPT   NOT AVBL
LORAIN-ELYRIA  CLOUDY    35  32  88 W15       29.79R WCI  25
ASHTABULA      CLOUDY    36  33  89 W12G26    29.75R
AKRON-CANTON   CLOUDY    38  35  89 W12       29.78R
WOOSTER        CLOUDY    36  34  93 W12       29.79R
MANSFIELD      CLOUDY    36  34  92 W12G24    29.79R
YOUNGSTOWN     CLOUDY    39  35  86 W17G24    29.75R
$$

OHZ042-051>053-060>062-070>072-077>081-040600-
  SOUTHWEST OHIO

CITY           SKY/WX    TMP DP  RH WIND       PRES   REMARKS
CINC-COVINGTON RAIN      41  38  89 W10       29.84F FOG
CINC-LUNKEN    RAIN      42  41  96 VRB5      29.87F FOG
HAMILTON       LGT RAIN  39  38  96 NW7       29.88F
DAYTON         NOT AVBL
WRIGHT-PAT AFB NOT AVBL
DAYTON GENERAL LGT RAIN  39  37  92 W8        29.86R
WILMINGTON     LGT RAIN  39  37  92 W13G23    29.84S FOG
$$

OHZ036-037-039>041-045>050-054>059-063>069-073>076-082>088-040600-
  CENTRAL AND SOUTHEAST OHIO

CITY           SKY/WX    TMP DP  RH WIND       PRES   REMARKS
COLUMBUS       LGT RAIN  38  36  92 W10       29.84R
OSU AIRPORT    MIX PCPN  37  35  92 NW12      29.85R
BOLTON FIELD   NOT AVBL
RICKENBACK AFB NOT AVBL
NEWARK         LGT RAIN  40  37  89 W9        29.82R
MARION         CLOUDY    36  32  85 W12       29.84R
LANCASTER      RAIN      40  39  97 W9        29.84R FOG
ZANESVILLE     LGT RAIN  41  39  93 W9        29.80S FOG
NEW PHILLY     CLOUDY    42  38  85 W6        29.81R
$$


USA.gov is the U.S. government's official web portal to all federal, state and local government web resources and services.